Historyczne dane pomiarowe

Dodano dane terminowe – wersja testowa.

Dane z okresu 1951-2019

Wersja bazy: 1.34 [2019-03-16, lista zmian], aktualizacja planowana na 2019-04-15

Dane meteo z obszaru Polski uzyskane na podstawie danych udostępnionych przez Instytut Meteorologii i Gospodarki Wodnej – Państwowy Instytut Badawczy.

 

Wybierz Datę:    

       

TemperaturaWilgotnośćWiatrCiśnienieOpadyŚniegCzas trwania zjawisk
 Stacja t tx tn tng RH VA  wxwx mslp ppp RRR   cm mm wxwxwxwxwxwxwx
2019-06-13 25.9 31.7 19.2 15.9 53.8- 2.3 4.0---- 0.0------------
2019-06-12 24.6 30.4 17.9 16.5 48.5- 2.3 3.7---- 0.0------------
2019-06-11 24.0 29.3 17.3 15.0 55.0- 2.0 4.0---- 0.0------------
2019-06-10 21.9 28.4 14.7 14.4 65.8- 2.0 3.7---- 0.0------------
2019-06-09 18.7 23.1 13.4 12.0 64.8- 3.3 2.3---- 0.0------------
2019-06-08 20.9 27.0 14.9 13.9 67.8- 4.3 2.7---- 0.0------------
2019-06-07 20.1 24.2 15.0 13.8 72.5- 5.3 2.0---- 0.0------------
2019-06-06 18.2 22.8 12.7 12.2 68.3- 3.3 4.0---- 0.0------------
2019-06-05 19.2 24.7 13.1 11.8 72.5- 3.7 2.7---- 0.3------------
2019-06-04 20.2 25.2 13.7 12.6 62.0- 4.7 3.3---- 0.0------------
2019-06-03 19.1 24.2 12.3 10.2 65.3- 3.3 2.7---- 0.0------------
2019-06-02 18.5 23.3 12.4 11.6 71.5- 3.0 2.0---- 0.0------------
2019-06-01 16.4 21.4 9.9 7.8 74.8- 4.7 1.3---- 1.8------------
2019-05-31 13.1 18.2 6.5 7.5 79.3- 5.0 1.0---- 0.0------------
2019-05-30 8.0 9.4 6.0 7.0 97.0- 8.0 2.3---- 15.3------------
2019-05-29 12.0 17.1 9.2 9.6 95.8- 8.0 3.0---- 4.7------------
2019-05-28 16.6 20.7 12.2 11.5 76.0- 7.3 4.0---- 0.4------------
2019-05-27 17.7 23.2 12.0 9.2 67.3- 6.0 3.7---- 1.8------------
2019-05-26 16.0 20.9 10.8 8.8 78.0- 5.0 1.7---- 1.1------------
2019-05-25 15.4 20.0 9.3 8.4 69.0- 5.3 2.3---- 0.0------------
2019-05-24 10.1 11.3 8.5 8.5 99.8- 8.0 2.3---- 3.7------------
2019-05-23 10.6 12.3 9.5 9.3 97.3- 8.0 5.0---- 26.5------------
2019-05-22 12.7 16.6 10.5 10.5 90.8- 7.7 3.7---- 17.8------------
2019-05-21 13.1 17.2 9.9 8.1 88.0- 8.0 2.3---- 34.6------------
2019-05-20 16.7 20.0 12.5 11.1 57.3- 6.3 5.3---- 0.0------------
2019-05-19 17.0 22.2 10.0 7.3 64.3- 3.7 3.3---- 2.3------------
2019-05-18 16.6 22.2 9.8 7.9 61.0- 5.3 3.0---- 0.0------------
2019-05-17 14.0 18.6 9.3 7.6 77.3- 6.7 3.0---- 0.2------------
2019-05-16 11.1 16.2 7.1 7.1 89.5- 7.0 3.0---- 0.5------------
2019-05-15 6.6 8.7 3.9 3.8100.0- 8.0 2.3---- 7.5------------
2019-05-14 3.3 6.6 0.0 0.0 98.3- 8.0 2.7---- 15.3------------
2019-05-13 5.9 7.5 4.4 3.2 92.8- 8.0 4.3---- 8.1------------
2019-05-12 11.1 17.5 6.8 5.8 85.3- 7.7 2.7---- 2.3------------
2019-05-11 12.7 17.7 7.1 5.4 67.8- 5.3 2.0---- 0.0------------
2019-05-10 10.4 15.3 5.5 6.0 83.0- 5.3 2.3---- 3.4------------
2019-05-09 8.1 10.6 5.4 3.0 70.3- 8.0 3.7---- 6.6------------
2019-05-08 8.2 13.1 1.3 -1.2 60.3- 3.0 3.3---- 0.0------------
2019-05-07 6.7 10.1 3.4 3.1 65.8- 6.7 3.7---- 0.0------------
2019-05-06 4.0 6.1 2.0 2.0 74.8- 8.0 4.0---- 0.0------------
2019-05-05 4.6 10.1 1.9 1.7 96.8- 8.0 3.7---- 13.0------------
2019-05-04 8.6 14.3 2.4 1.2 74.3- 5.0 2.3---- 0.9------------
2019-05-03 8.9 14.9 5.4 4.5 90.0- 7.7 1.7---- 8.7------------
2019-05-02 13.0 18.7 7.6 7.7 56.8- 4.3 6.0---- 0.2------------
2019-05-01 10.8 15.4 6.4 6.4 69.8- 5.0 4.3---- 2.0------------
2019-04-30 8.9 9.7 7.9 7.7 99.0- 8.0 3.3---- 14.9------------
2019-04-29 8.2 10.2 6.1 6.0 98.5- 8.0 1.7---- 4.7------------
2019-04-28 7.8 9.8 6.3 6.0 98.5- 8.0 5.0---- 22.4------------
2019-04-27 13.2 21.8 9.4 9.4 93.5- 8.0 3.0---- 21.5------------
2019-04-26 19.5 26.6 11.5 7.5 45.0- 6.0 4.0---- 1.1------------
2019-04-25 17.5 24.3 11.3 10.4 56.5- 3.7 2.7---- 0.0------------
2019-04-24 11.5 14.5 7.9 7.5 68.5- 5.7 5.7---- 0.0------------
2019-04-23 10.2 15.2 5.7 5.4 66.8- 5.3 6.0---- 0.0------------
2019-04-22 9.6 13.9 5.6 3.2 69.3- 6.3 4.7---- 0.6------------
2019-04-21 10.3 16.4 4.4 -0.5 51.3- 4.7 2.7---- 0.4------------
2019-04-20 11.6 18.6 4.4 -1.2 39.3- 3.7 2.3---- 0.0------------
2019-04-19 11.1 16.8 4.5 0.4 43.3- 0.3 2.7---- 0.0------------
2019-04-18 9.3 15.2 3.3 -0.2 68.3- 5.0 3.3---- 0.0------------
2019-04-17 7.0 12.0 1.8 2.2 83.5- 7.3 1.7---- 0.1------------
2019-04-16 5.5 11.3 -1.5 -5.5 48.8- 2.7 3.3---- 0.5------------
2019-04-15 3.7 9.4 -1.6 -4.7 57.8- 0.3 2.3---- 0.0------------
540.6 ms

 

Źródłem pochodzenia danych jest Instytut Meteorologii i Gospodarki Wodnej – Państwowy Instytut Badawczy. Dane Instytutu Meteorologii i Gospodarki Wodnej – Państwowego Instytutu Badawczego zostały przetworzone.

Dane źródłowe można odnaleźć na stronie https://dane.imgw.pl